This demonstration page uses our WeatherBlox Daily Observations layout. Learn more.

Left ArrowRight Arrow

Hourly Observations for February 8, 2016

Temp ( °F °C ) Dew Point ( °F °C ) Humidity (%) Winds ( mph kmh ) Pressure ( in mb ) Visibility ( mi km ) Precip ( " mm )
12:15 am 00:15 Mostly Clear 28 -2 -18 -28 12 12 NW 15 24 30.27 1025 10 16 0.00 0.00
12:35 am 00:35 Partly Cloudy 28 -2 -18 -28 12 12 WNW 18 30 30.27 1025 10 16 0.00 0.00
12:55 am 00:55 Cloudy 30 -1 -17 -27 12 12 NW 24 39 30.27 1025 10 16 0.00 0.00
1:15 am 01:15 Cloudy 32 0 -17 -27 11 11 NNW 26 43 30.24 1024 10 16 0.00 0.00
1:35 am 01:35 Mostly Cloudy 30 -1 -17 -27 12 12 NW 21 33 30.27 1025 10 16 0.00 0.00
1:55 am 01:55 Mostly Cloudy 30 -1 -17 -27 12 12 NW 18 30 30.27 1025 10 16 0.00 0.00
2:15 am 02:15 Mostly Cloudy 30 -1 -17 -27 12 12 NW 21 33 30.27 1025 10 16 0.00 0.00
2:35 am 02:35 Clear 30 -1 -18 -28 11 11 NW 26 43 30.27 1025 10 16 0.00 0.00
2:55 am 02:55 Clear 28 -2 -18 -28 12 12 NW 20 31 30.27 1025 10 16 0.00 0.00
3:15 am 03:15 Clear 28 -2 -18 -28 12 12 NW 20 31 30.27 1025 10 16 0.00 0.00
3:35 am 03:35 Clear 28 -2 -18 -28 12 12 NW 24 39 30.24 1024 10 16 0.00 0.00
3:55 am 03:55 Clear 28 -2 -18 -28 12 12 NW 21 33 30.24 1024 10 16 0.00 0.00
4:15 am 04:15 Clear 28 -2 -18 -28 12 12 NW 22 35 30.24 1024 10 16 0.00 0.00
4:35 am 04:35 Clear 28 -2 -18 -28 12 12 NW 20 31 30.24 1024 10 16 0.00 0.00
4:55 am 04:55 Clear 28 -2 -18 -28 12 12 NW 21 33 30.24 1024 10 16 0.00 0.00
5:15 am 05:15 Clear 27 -3 -18 -28 13 13 NW 21 33 30.27 1025 10 16 0.00 0.00
5:35 am 05:35 Clear 27 -3 -18 -28 13 13 NW 20 31 30.27 1025 10 16 0.00 0.00
5:55 am 05:55 Clear 27 -3 -20 -29 11 11 NW 18 30 30.27 1025 10 16 0.00 0.00
6:15 am 06:15 Clear 27 -3 -20 -29 11 11 NW 20 31 30.27 1025 10 16 0.00 0.00
6:35 am 06:35 Clear 27 -3 -20 -29 11 11 NNW 21 33 30.30 1026 10 16 0.00 0.00
6:55 am 06:55 Clear 27 -3 -20 -29 11 11 NNW 23 37 30.30 1026 10 16 0.00 0.00
7:15 am 07:15 Clear 27 -3 -20 -29 11 11 NNW 23 37 30.30 1026 10 16 0.00 0.00
7:35 am 07:35 Clear 27 -3 -20 -29 11 11 NNW 23 37 30.30 1026 10 16 0.00 0.00
7:55 am 07:55 Sunny 27 -3 -20 -29 11 11 NNW 23 37 30.30 1026 10 16 0.00 0.00
8:15 am 08:15 Sunny 27 -3 -20 -29 11 11 NNW 26 43 30.33 1027 10 16 0.00 0.00
8:35 am 08:35 Sunny 27 -3 -20 -29 11 11 NNW 29 46 30.33 1027 10 16 0.00 0.00
8:55 am 08:55 Sunny 27 -3 -20 -29 11 11 NNW 26 43 30.33 1027 10 16 0.00 0.00
9:15 am 09:15 Sunny 28 -2 -18 -28 12 12 NNW 24 39 30.33 1027 10 16 0.00 0.00
9:35 am 09:35 Sunny 28 -2 -18 -28 12 12 NNW 28 44 30.33 1027 10 16 0.00 0.00
9:55 am 09:55 Sunny 28 -2 -18 -28 12 12 NNW 29 46 30.36 1028 10 16 0.00 0.00
10:15 am 10:15 Sunny 30 -1 -18 -28 11 11 NNW 28 44 30.36 1028 10 16 0.00 0.00
10:35 am 10:35 Sunny 30 -1 -17 -27 12 12 NNW 28 44 30.36 1028 10 16 0.00 0.00
10:55 am 10:55 Sunny 30 -1 -17 -27 12 12 NNW 26 43 30.36 1028 10 16 0.00 0.00
11:15 am 11:15 Sunny 30 -1 -17 -27 12 12 NW 29 46 30.36 1028 10 16 0.00 0.00
11:35 am 11:35 Sunny 32 0 -17 -27 11 11 NW 24 39 30.36 1028 10 16 0.00 0.00
11:55 am 11:55 Sunny 34 1 -17 -27 10 10 NW 25 41 30.33 1027 10 16 0.00 0.00
12:15 pm 12:15 Sunny 34 1 -15 -26 11 11 NW 25 41 30.33 1027 10 16 0.00 0.00
12:35 pm 12:35 Sunny 36 2 -15 -26 10 10 NW 26 43 30.33 1027 10 16 0.00 0.00
12:55 pm 12:55 Sunny 36 2 -15 -26 10 10 NW 25 41 30.30 1026 10 16 0.00 0.00
1:15 pm 13:15 Sunny 36 2 -15 -26 10 10 NW 31 50 30.30 1026 10 16 0.00 0.00
1:35 pm 13:35 Sunny 36 2 -13 -25 11 11 NW 29 46 30.30 1026 10 16 0.00 0.00
1:55 pm 13:55 Sunny 36 2 -13 -25 11 11 NNW 28 44 30.30 1026 10 16 0.00 0.00
2:15 pm 14:15 Sunny 36 2 -13 -25 11 11 NNW 26 43 30.27 1025 10 16 0.00 0.00
2:35 pm 14:35 Sunny 36 2 -13 -25 11 11 NW 20 31 30.27 1025 10 16 0.00 0.00
2:55 pm 14:55 Sunny 36 2 -13 -25 11 11 NW 24 39 30.30 1026 10 16 0.00 0.00
3:15 pm 15:15 Sunny 37 3 -13 -25 11 11 NNW 22 35 30.30 1026 10 16 0.00 0.00
3:35 pm 15:35 Sunny 37 3 -13 -25 11 11 NNW 23 37 30.30 1026 10 16 0.00 0.00
3:55 pm 15:55 Sunny 36 2 -13 -25 11 11 NNW 22 35 30.30 1026 10 16 0.00 0.00
4:15 pm 16:15 Sunny 36 2 N/A N/A NNW 22 35 30.30 1026 10 16 0.00 0.00
4:35 pm 16:35 Sunny 36 2 -15 -26 10 10 NNW 17 28 30.30 1026 10 16 0.00 0.00
4:55 pm 16:55 Sunny 36 2 N/A N/A NNW 20 31 30.30 1026 10 16 0.00 0.00
5:15 pm 17:15 Sunny 34 1 -15 -26 11 11 NNW 15 24 30.30 1026 10 16 0.00 0.00
5:35 pm 17:35 Sunny 34 1 -15 -26 11 11 NW 16 26 30.30 1026 10 16 0.00 0.00
5:55 pm 17:55 Sunny 34 1 -15 -26 11 11 NW 13 20 30.27 1025 10 16 0.00 0.00
6:15 pm 18:15 Clear 30 -1 -17 -27 12 12 NW 12 19 30.33 1027 10 16 0.00 0.00
6:35 pm 18:35 Clear 30 -1 -17 -27 12 12 NW 14 22 30.33 1027 10 16 0.00 0.00
6:55 pm 18:55 Clear 30 -1 -17 -27 12 12 NW 13 20 30.30 1026 10 16 0.00 0.00
7:15 pm 19:15 Clear 28 -2 -18 -28 12 12 NW 14 22 30.30 1026 10 16 0.00 0.00
7:35 pm 19:35 Clear 28 -2 -18 -28 12 12 NW 10 17 30.33 1027 10 16 0.00 0.00
7:55 pm 19:55 Clear 27 -3 -20 -29 11 11 NW 9 15 30.33 1027 10 16 0.00 0.00
8:15 pm 20:15 Clear 25 -4 -22 -30 11 11 WNW 8 13 30.33 1027 10 16 0.00 0.00
8:35 pm 20:35 Clear 21 -6 -24 -31 12 12 WNW 9 15 30.36 1028 10 16 0.00 0.00
8:55 pm 20:55 Clear 25 -4 -22 -30 11 11 W 12 19 30.33 1027 10 16 0.00 0.00
9:15 pm 21:15 Clear 25 -4 -20 -29 12 12 WNW 10 17 30.33 1027 10 16 0.00 0.00
9:35 pm 21:35 Clear 25 -4 -22 -30 11 11 WNW 10 17 30.33 1027 10 16 0.00 0.00
9:55 pm 21:55 Clear 25 -4 -22 -30 11 11 W 13 20 30.33 1027 10 16 0.00 0.00
10:15 pm 22:15 Clear 25 -4 -20 -29 12 12 WNW 13 20 30.33 1027 10 16 0.00 0.00
10:35 pm 22:35 Mostly Cloudy 25 -4 -20 -29 12 12 WNW 12 19 30.33 1027 10 16 0.00 0.00
10:55 pm 22:55 Partly Cloudy 25 -4 -20 -29 12 12 WNW 13 20 30.33 1027 10 16 0.00 0.00
11:15 pm 23:15 Clear 25 -4 -20 -29 12 12 WNW 13 20 30.33 1027 10 16 0.00 0.00
11:35 pm 23:35 Clear 25 -4 -20 -29 12 12 WNW 13 20 30.33 1027 10 16 0.00 0.00
11:55 pm 23:55 Clear 25 -4 -22 -30 11 11 WNW 12 19 30.33 1027 10 16 0.00 0.00

Powered by AerisWeather